{"data":{"norad_id":66772,"intl_designator":"2025-276DL","name":"IHI-SAT2","alt_names":[],"object_type":"PAYLOAD","status":"ACTIVE","operator":null,"country":"JPN","launch_date":"2025-11-28","launch_site_code":"AFWTR","launch_vehicle":null,"mission":null,"orbit_class":"UNKNOWN","rcs_meters":null,"size_class":null,"mass_kg":null,"dimensions":null,"purposes":[],"wikipedia_slug":null,"has_3d_model":false,"image_url":null,"decayed_at":null,"tle_current":{"epoch":"2026-09-20T22:34:49.188576Z","epoch_age_seconds":79557,"freshness":"FRESH","line1":"1 66772U 25276DL  26263.94084709  .00004023  00000+0  17695-3 0  9999","line2":"2 66772  97.4156 336.7055 0000886 155.8960 204.2318 15.22448140 45018","mean_motion":15.2244814,"eccentricity":8.86e-5,"inclination_deg":97.4156,"raan_deg":336.7055,"arg_perigee_deg":155.896,"mean_anomaly_deg":204.2318,"bstar":0.00017695,"rev_number":4501,"period_min":94.584502563089,"perigee_km":497.84961332205,"apogee_km":499.06814611194,"semimajor_km":6876.595879717,"source":"CELESTRAK","updated_at":"2026-09-21T09:00:16.186469Z"}}}